Tracking 29892 objects as of 21-Nov-2024
HD Live streaming from Space Station
objects crossing your sky now

STARLINK-2398

Track STARLINK-2398 now!
10-day predictions
STARLINK-2398 is classified as:


NORAD ID: 47918
Int'l Code: 2021-021BL
Perigee: 517.3 km
Apogee: 518.9 km
Inclination: 53.1 °
Period: 94.8 minutes
Semi major axis: 6889 km
RCS: Unknown
Launch date: March 14, 2021
Source: United States (US)
Launch site: AIR FORCE EASTERN TEST RANGE (AFETR)
Your satellite tracking list
Your tracking list is empty




NASA's NSSDC Master Catalog

Two Line Element Set (TLE):
1 47918U 21021BL  24325.91668981  .00328780  00000-0  15148-1 0  9997
2 47918  53.0543 237.7760 0001154  71.8739 311.6605 15.18292274  5793
Source of the keplerian elements: AFSPC